Location: Ellerstadt
(49.4644°N, 8.2615°E)
Time: 17:00:16
(UTC+00:00)

Altair - Pass Details

Date: 15 June 2021
Orbit: 1502 x 1682 km, 47.2° (Epoch: 02 August)

Event Time Altitude Azimuth Distance (km) Brightness Sun altitude
Rises 21:38:18 0° 287° (WNW) 4,891 10.8 -13.2°
Reaches altitude 10° 21:42:55 10° 269° (W) 3,923 9.9 -13.6°
Maximum altitude 21:48:38 17° 234° (SW) 3,403 9.2 -13.9°
Drops below altitude 10° 21:54:23 10° 198° (SSW) 3,937 9.2 -14.3°
Enters shadow 21:55:19 - 194° (SSW) 4,102 9.3 -14.3°
